Retour au catalogue

DELTA 1 DEB

ActifSSO
NORAD 12292·DEBRIS·🇺🇸 United States

Lancé Mar 5, 1978 depuis Vandenberg Space Force Base

Loading…

Prochains Passages (prochaines 24 heures)

TLE

FraisSource: Space-Track

Époque: Sep 14, 2026, 06:22 UTC

1 12292U 78026EL  26257.26594205  .00000233  00000-0  17096-3 0  9998
2 12292  98.9302   0.9546 0048425 358.6621  28.4553 14.04721520302746

Suivez DELTA 1 DEB en temps réel avec AllMySat

Download on the App Store